{"data":{"norad_id":67713,"intl_designator":"2026-025W","name":"STARLINK-36708","alt_names":[],"object_type":"PAYLOAD","status":"ACTIVE","operator":null,"country":"US","launch_date":"2026-02-07","launch_site_code":"AFWTR","launch_vehicle":null,"mission":null,"orbit_class":"UNKNOWN","rcs_meters":null,"size_class":null,"mass_kg":null,"dimensions":null,"purposes":["comms"],"wikipedia_slug":null,"has_3d_model":false,"image_url":null,"decayed_at":null,"tle_current":{"epoch":"2026-09-19T22:18:36.280512Z","epoch_age_seconds":115753,"freshness":"FRESH","line1":"1 67713U 26025W   26262.92958658  .00015789  00000+0  49032-3 0  9999","line2":"2 67713  97.2843  12.0036 0001106  96.5424 263.5945 15.33447664 35723","mean_motion":15.33447664,"eccentricity":0.0001106,"inclination_deg":97.2843,"raan_deg":12.0036,"arg_perigee_deg":96.5424,"mean_anomaly_deg":263.5945,"bstar":0.00049032,"rev_number":3572,"period_min":93.906041517176,"perigee_km":464.77833814923,"apogee_km":466.29215845055,"semimajor_km":6843.6722482999,"source":"CELESTRAK","updated_at":"2026-09-20T09:00:43.655219Z"}}}